Tracking 29892 objects as of 21-Nov-2024
HD Live streaming from Space Station
objects crossing your sky now

DELTA 1 DEB

Track DELTA 1 DEB now!
10-day predictions


NORAD ID: 42078
Int'l Code: 1968-114E
Perigee: 1,449.8 km
Apogee: 1,493.6 km
Inclination: 101.4 °
Period: 115.2 minutes
Semi major axis: 7842 km
RCS: Unknown
Launch date: December 15, 1968
Source: United States (US)
Launch site: AIR FORCE WESTERN TEST RANGE (AFWTR)

Note: This is SATELLITE DEBRIS
Your satellite tracking list
Your tracking list is empty




NASA's NSSDC Master Catalog

Two Line Element Set (TLE):
1 42078U 68114E   24314.18366866  .00000103  00000-0  95834-3 0  9995
2 42078 101.4296 285.8787 0027968 325.1383  34.7857 12.49986505150119
Source of the keplerian elements: AFSPC